Starlink 31818

operational
NORAD ID: 59741 Int'l Des: 2024-090 Owner: SPXS Country: US Constellation: starlink
LEOCIRCULAR

About Starlink 31818

Description loading...

Live Position

Loading 3D Globe...

Upcoming Passes

Altitude History

Altitude vs Time

uPlot chart will show altitude changes over time

Two-Line Element Set

1 59741U 24090M 26071.27916016 .00000220 00000-0 17508-4 0 9998
2 59741 43.0028 169.0864 0001217 246.8505 113.2219 15.27574739103834
Epoch: Mar 12, 2026 • Age: 17 hours

Current Status

Altitude 489.1 km
Velocity 7.62 km/s
Sub-Earth Point -26.78°S, 47.33°W
Launch Date May 13, 2024
Age 1.8 years
Type internet

Technical Details

Classification Payload
Mass 730.00 kg
Dry Mass 700.00 kg
Total Mass 730.00 kg
Length 0.30 m
Diameter 4.10 m
Span 29.00 m
Shape Box + pan
Manufacturer SPXS
Bus Type Starlink V2M
Phase Status In Orbit
Owner/State SPXS/US

Large Constellations

Loading constellations...